User: anonymous   Login
Location: ?????????
(38.0736°N, 23.2119°E)
Time: 05:24:30
(UTC+00:00)
Language:

Resurs 1-4 Rocket - Orbit

View from above orbital plane
View from above orbital plane
View from above satellite
View from above satellite

Ground track
Ground track

The orbit data is extracted from the following two-line orbital elements,

1 25400U 98043G   24174.80499574  .00000099  00000-0  60367-4 0  9993
2 25400  98.7451 115.8514 0010509  33.6336 326.5509 14.25760089350168
Epoch (UTC): 22 June 2024 19:19:11
Eccentricity: 0.0010509
inclination: 98.7451°
perigee height: 798 km
apogee height: 813 km
right ascension of ascending node: 115.8514°
argument of perigee: 33.6336°
revolutions per day: 14.25760089
mean anomaly at epoch: 326.5509°
orbit number at epoch: 35016

The dashed part of the orbit path shows where the satellite is in the earth's shadow,  

DLR